Location: Newark
(43.0000°N, 1.6781°W)
Time: 15:37:26
(UTC+00:00)

PCSat - Pass Details

Date: 08 December 2022
Orbit: 785 x 793 km, 67.1° (Epoch: 05 February)

Event Time Altitude Azimuth Distance (km) Brightness Sun altitude
Rises 19:12:12 0° 236° (SW) 3,268 13.7 -28.5°
Reaches altitude 10° 19:14:48 10° 245° (WSW) 2,344 12.8 -28.9°
Maximum altitude 19:19:41 35° 310° (NW) 1,268 10.9 -29.8°
Enters shadow 19:21:04 30° 340° (NNW) 1,387 10.9 -30.1°
